TimeCST,TemperatureF,Dew PointF,Humidity,Sea Level PressureIn,VisibilityMPH,Wind Direction,Wind SpeedMPH,Gust SpeedMPH,PrecipitationIn,Events,Conditions,WindDirDegrees,DateUTC
12:58 AM,49.3,47.8,95,30.20,10.0,NNE,1.2,-,N/A,,Clear,30,2013-11-10 06:58:00
1:58 AM,49.3,48.2,96,30.21,10.0,NNE,2.3,-,N/A,,Clear,20,2013-11-10 07:58:00
2:58 AM,49.1,48.0,96,30.21,4.0,NNW,1.2,-,N/A,,Partly Cloudy,330,2013-11-10 08:58:00
3:58 AM,47.8,46.8,96,30.21,10.0,North,2.3,-,N/A,,Scattered Clouds,350,2013-11-10 09:58:00
4:58 AM,48.6,47.5,96,30.22,10.0,North,2.3,-,N/A,,Scattered Clouds,350,2013-11-10 10:58:00
5:58 AM,50.0,49.1,97,30.24,10.0,North,2.3,-,N/A,,Mostly Cloudy,350,2013-11-10 11:58:00
6:58 AM,52.2,51.1,96,30.26,10.0,North,3.5,-,N/A,,Partly Cloudy,360,2013-11-10 12:58:00
7:58 AM,58.1,52.7,82,30.27,10.0,NE,5.8,-,N/A,,Clear,40,2013-11-10 13:58:00
8:58 AM,64.9,54.1,68,30.27,10.0,ENE,4.6,-,N/A,,Clear,60,2013-11-10 14:58:00
9:58 AM,70.3,55.2,59,30.25,10.0,NNE,9.2,-,N/A,,Clear,20,2013-11-10 15:58:00
10:58 AM,72.7,54.5,53,30.24,10.0,Variable,6.9,-,N/A,,Partly Cloudy,0,2013-11-10 16:58:00
11:58 AM,73.9,55.6,53,30.21,10.0,North,5.8,-,N/A,,Scattered Clouds,10,2013-11-10 17:58:00
12:58 PM,74.8,54.9,50,30.19,10.0,North,5.8,-,N/A,,Clear,360,2013-11-10 18:58:00
1:58 PM,75.2,54.3,48,30.18,10.0,Variable,5.8,-,N/A,,Clear,0,2013-11-10 19:58:00
2:58 PM,75.4,52.5,45,30.18,10.0,NNE,5.8,-,N/A,,Clear,30,2013-11-10 20:58:00
3:58 PM,74.3,53.6,48,30.19,10.0,NNE,4.6,-,N/A,,Clear,20,2013-11-10 21:58:00
4:58 PM,67.6,53.2,60,30.19,10.0,North,5.8,-,N/A,,Clear,360,2013-11-10 22:58:00
5:58 PM,63.1,54.3,73,30.21,10.0,North,4.6,-,N/A,,Mostly Cloudy,350,2013-11-10 23:58:00
6:58 PM,61.3,53.8,76,30.21,10.0,NNE,2.3,-,N/A,,Scattered Clouds,20,2013-11-11 00:58:00
7:58 PM,57.6,53.1,85,30.22,10.0,NW,2.3,-,N/A,,Scattered Clouds,320,2013-11-11 01:58:00
8:58 PM,54.5,51.8,91,30.23,10.0,Calm,Calm,-,N/A,,Clear,0,2013-11-11 02:58:00
9:58 PM,53.1,50.9,92,30.23,10.0,NNW,1.2,-,N/A,,Clear,340,2013-11-11 03:58:00
10:58 PM,51.6,49.5,92,30.22,10.0,NNW,2.3,-,N/A,,Clear,330,2013-11-11 04:58:00
11:58 PM,49.8,47.7,92,30.22,10.0,NNW,3.5,-,N/A,,Clear,340,2013-11-11 05:58:00